[Iaude] MPEC B157: 2024 BJ3 [a=2.00,e=0.65,i=0.4,H=25.9]

mpec at marsden.cfa.harvard.edu mpec at marsden.cfa.harvard.edu
Tue Jan 30 18:21:24 EST 2024


M.P.E.C. 2024-B157                             Issued 2024 January 30, 23:19 UT

     The Minor Planet Electronic Circulars contain information on unusual
         minor planets, routine data on comets and natural satellites,
         and occasional editorial announcements.  They are published
    on behalf of Division F of the International Astronomical Union by the
          Minor Planet Center, Smithsonian Astrophysical Observatory,
                          Cambridge, MA 02138, U.S.A.
			  
             Prepared using the Tamkin Foundation Computer Network

                              MPC at CFA.HARVARD.EDU
            URL https://www.minorplanetcenter.net/    ISSN 1523-6714

                                    2024 BJ3                                    


Observations:
     K24B03J  C2024 01 19.56544408 40 32.353+18 22 32.48         22.64GVEB157F52
     K24B03J  C2024 01 19.57794808 40 32.592+18 22 27.63         22.72GVEB157F52
     K24B03J  C2024 01 19.59046308 40 32.874+18 22 22.90         22.55GVEB157F52
     K24B03J  C2024 01 19.60303708 40 33.149+18 22 17.77         22.35GVEB157F52
     K24B03J*1C2024 01 30.36266709 08 04.585+14 24 25.09         19.37GVEB157703
     K24B03J 1C2024 01 30.36495709 08 05.802+14 24 10.98         19.08GVEB157703
     K24B03J 1C2024 01 30.36954209 08 08.290+14 23 44.88         18.79GVEB157703
     K24B03J 1C2024 01 30.46293109 09 01.750+14 14 07.50         18.94GVEB157703
     K24B03J 1C2024 01 30.46462109 09 02.800+14 13 54.50               VEB157703
     K24B03J 1C2024 01 30.46633309 09 03.810+14 13 43.70         18.79GVEB157703
     K24B03J 1C2024 01 30.46811609 09 04.970+14 13 33.10         18.94GVEB157703
     K24B03J KC2024 01 30.77986909 13 22.42 +13 36 25.6          18.8 GXEB157L18
     K24B03J KC2024 01 30.78405409 13 25.68 +13 35 54.4          18.5 GXEB157L18
     K24B03J KC2024 01 30.78818409 13 28.94 +13 35 23.8          18.2 GXEB157L18
     K24B03J KC2024 01 30.79226009 13 32.19 +13 34 53.6          18.4 GXEB157L18
     K24B03J KB2024 01 30.84160 09 14 14.15 +13 28 39.3          18.4 RZEB157106
     K24B03J KB2024 01 30.84457 09 14 14.47 +13 28 23.7          18.6 GXEB157M45
     K24B03J KB2024 01 30.84503 09 14 16.93 +13 28 12.4          18.0 RZEB157106
     K24B03J KB2024 01 30.84681 09 14 16.29 +13 28 06.1          18.9 GXEB157M45
     K24B03J KB2024 01 30.84845 09 14 19.71 +13 27 45.6          18.2 RZEB157106
     K24B03J KB2024 01 30.84886 09 14 17.94 +13 27 49.1          18.8 GXEB157M45
     K24B03J KB2024 01 30.85203 09 14 22.62 +13 27 17.7          18.4 RZEB157106
     K24B03J KC2024 01 30.87193409 14 39.89 +13 24 53.1          17.6 RVEB157M50
     K24B03J KC2024 01 30.87412809 14 41.73 +13 24 35.4          18.0 RVEB157M50
     K24B03J KC2024 01 30.88532509 14 49.82 +13 22 52.0          18.4 GXEB157595
     K24B03J KC2024 01 30.90572409 15 06.54 +13 20 05.3          18.6 GXEB157595
     K24B03J KB2024 01 30.90766209 15 11.32 +13 19 48.3          18.7 GXEB157I93
     K24B03J KC2024 01 30.90922009 15 10.32 +13 19 43.6          18.6 GVEB157104
     K24B03J KB2024 01 30.91003209 15 13.29 +13 19 28.6          18.3 GXEB157I93
     K24B03J KC2024 01 30.91211809 15 12.69 +13 19 19.3          18.4 GVEB157104
     K24B03J KB2024 01 30.91226809 15 15.17 +13 19 10.1          18.2 GXEB157I93
     K24B03J KC2024 01 30.91501809 15 15.10 +13 18 55.6          18.3 GVEB157104
     K24B03J KC2024 01 30.91582109 15 14.88 +13 18 41.8          18.7 GXEB157595
     K24B03J KC2024 01 30.91741009 15 19.74 +13 18 31.2          17.8 GXEB157958
     K24B03J KC2024 01 30.92286009 15 24.31 +13 17 46.6          17.9 GXEB157958
     K24B03J KC2024 01 30.92830709 15 28.90 +13 17 00.4          17.5 GXEB157958

Observer details:
104 San Marcello Pistoiese.  Observers P. Bacci, M. Maestripieri.  Measurers
    P. Bacci, L. Tesi, G. Fagioli.  0.60-m F4 Reflector + CCD.
106 Crni Vrh.  Observer H. Mikuz.  0.60-m f/3.3 reflector + CMO.
595 Farra d'Isonzo.  Observers R. Basana, G. Panterotto, E. Pettarin.
    Measurer E. Pettarin.  0.61-m f/4.5 reflector + CCD.
703 Catalina Sky Survey.  Observer V. F. Carvajal.  Measurers T. Beuden, V. F.
    Carvajal, D. Fay, J. B. Fazekas, D. C. Fuls, A. R. Gibbs, A. D. Grauer, H.
    Groeller, J. K. Hogan, R. A. Kowalski, S. M. Larson, G. J. Leonard, D.
    Rankin, R. L. Seaman, F. C. Shelly, K. W. Wierzchos.  0.68-m Schmidt + 10K
    CCD.
958 Observatoire de Dax.  Observers P. Dupouy, J. B. de Vanssay.  Measurer P.
    Dupouy.  0.43-m f/2.7 Reflector + CCD.
F52 Pan-STARRS 2, Haleakala.  Observers J. Herman, T. Lowe, P. Minguez, A.
    Schultz, I. Smith.  Measurers K. Chambers, T. de Boer, J. Fairlamb, H.
    Gao, M. Huber, C.-C. Lin, E. Magnier, Y. Ramanjooloo, R. Wainscoat, R.
    Weryk.  1.8-m Ritchey-Chretien + CCD.
I93 St Pardon de Conques.  Observer F. Losse.  0.40-m f/3.7 reflector + CMO.
L18 QOS Observatory, Zalistsi.  Observers Y. V. Tanasiychuk, B. O. Basiev.
    Measurer A. M. Kozhukhov.  0.50-m f/3.8 reflector + CCD.
M45 Starhopper Observatory, Sfantu Gheorghe.  Observer F. Ursache.  0.41-m
    f/7.5 reflector + CMO.
M50 Virtual Telescope Project, Manciano.  Observer G. Masi.  0.36-m  f/6.9
    Schmidt-Cassegrain + CCD.

Orbital elements:
2024 BJ3                                                 Earth MOID = 0.0015 AU
Epoch 2023 Sept. 13.0 TT = JDT 2460200.5                MPC                     
M 294.68585              (2000.0)            P               Q                  
n   0.34970215     Peri.  266.95250     -0.88952640     +0.45684451             
a   1.9952800      Node   300.23110     -0.41638089     -0.81599634             
e   0.6462178      Incl.    0.39720     -0.18806844     -0.35417941             
P   2.82           H   25.96          G   0.15           U   8                  
Residuals in seconds of arc
240119 F52  0.0   0.1+    240130 L18  0.3-  0.1-    240130 595  0.2-  0.0
240119 F52  0.1-  0.0     240130 L18  0.4-  0.1+    240130 595  0.3-  0.1+
240119 F52  0.1+  0.0     240130 L18  0.0   0.5+    240130 I93  0.2+  0.1+
240119 F52  0.0   0.2-    240130 106  0.1-  0.2+    240130 104  0.0   0.1+
240130 703  0.5+  0.7+    240130 M45  0.0   0.2+    240130 I93  0.0   0.2-
240130 703  0.1+  0.0     240130 106  0.1-  0.0     240130 104  0.2-  0.3-
240130 703  0.0   1.0+    240130 M45  0.5+  0.2+    240130 I93  0.1+  0.3-
240130 703  0.5-  0.5+    240130 106  0.0   0.1-    240130 104  0.0   0.1+
240130 703  0.1-  1.6-    240130 M45  0.8+  0.7-    240130 595  0.1-  0.3+
240130 703  0.6-  1.3-    240130 106  0.1+  0.1+    240130 958  0.6-  0.1-
240130 703  0.5+  0.4-    240130 M50  0.0   0.6-    240130 958  0.6-  0.4+
240130 L18  0.5+  0.0     240130 M50  0.8+  0.8-    240130 958  0.4-  0.4-

Ephemeris:
2024 BJ3                 a,e,i = 2.00, 0.65, 0                   q = 0.7059
Date    TT    R. A. (2000) Decl.     Delta      r    Elong.  Phase     V
2023 12 31    08 31 03.7 +19 17 05   0.3750  1.3293   153.4    19.4    25.4
...
2024 01 15    08 38 05.0 +18 40 48   0.1963  1.1757   166.9    10.9    23.5
...
2024 01 23    08 43 27.3 +17 59 44   0.1097  1.0933   173.6     5.7    21.8
...
2024 01 29    08 57 48.4 +15 57 43   0.04737 1.0321   175.7     4.1    19.8
2024 01 30    09 04 38.6 +14 57 10   0.03717 1.0220   174.8     5.0    19.3
2024 01 31    09 16 26.2 +13 09 33   0.02706 1.0119   172.4     7.4    18.7
...
2024 02 06    19 58 07.2 -23 43 00   0.03561 0.9525    19.7   159.6    29.4
...
2024 02 14    20 24 24.2 -20 37 14   0.1187  0.8776    21.0   156.2    30.9
...
2024 02 29    20 39 45.4 -19 11 15   0.2887  0.7621    32.2   136.1    29.0

A. U. Tomatic                (C) Copyright 2024 MPC           M.P.E.C. 2024-B157





More information about the Iaude mailing list